{"data":{"norad_id":41021,"epoch":"2026-05-24T19:40:45.488352Z","epoch_age_seconds":90217,"freshness":"FRESH","line1":"1 41021U 15063A   26144.81997093 -.00000326  00000+0  00000+0 0  9996","line2":"2 41021   0.2148  91.0070 0007559 100.9464  89.0445  1.00267451 38740","mean_motion":1.00267451,"eccentricity":0.0007559,"inclination_deg":0.2148,"raan_deg":91.007,"arg_perigee_deg":100.9464,"mean_anomaly_deg":89.0445,"bstar":0,"rev_number":3874,"period_min":1436.1589784505,"perigee_km":35755.936743159,"apogee_km":35819.683221807,"semimajor_km":42165.946982483,"source":"CELESTRAK","updated_at":"2026-05-25T13:38:13.995567Z"}}